THOR ABLESTAR DEB, 3592

Orbit data source: Space-Track

THOR ABLESTAR DEB, 3592 is space debris in LEO originally from a launch on Thu, 24 Jun 1965 UTC launched from the Air Force Western Test Range (AFWTR). Debris objects in space refer to the collection of defunct objects orbiting the Earth. Examples of debris include non-operational satellites, rocket bodies, and fragments generated from explosions, collisions, or faulty payload assembly.

Loading next visibility...
Identifier
3592, 1965-048F
Orbit
LEO
Country
Flag of USUS
Related business
Manufacturer
Unknown
Mission
Spacecraft
Bus & Motor
Unknown
Mass
Unknown
Launch date (UTC)
1965-06-24 (60 years ago)
Launch vehicle
Unknown
Launch site
Air Force Western Test Range (AFWTR)
Object type
Payload
Rocket body
Debris
Shape & HBR
Unknown shape, 0.1 m
Radar Cross Section
Small (<0.1 m²)

Expand to show TLE details & history
Last TLE update: 20 hours ago

TLE from 20 hours ago
0 THOR ABLESTAR DEB
1 03592U 65048F   25342.39702212  .00000464  00000-0  57651-3 0  9995
2 03592  89.8795 290.1621 0060795 162.9234 319.2915 13.62598523993984
Epoch: 2025-12-08T09:31Z
TLE epoch observation values (Epoch: 2025-12-08T09:31:42.711Z)
Latitude
58.33469°
Longitude
-110.35687°
Altitude
1,002.181 km
Speed
7.373 km/s
True Right ascension
07h 19m 52s
True Declination
58° 11' 09"
Sunlit
Object was in full shadow at epoch
Visualization orbit readout
Latitude
Unknown
Longitude
Unknown
Altitude
Unknown
Speed
Unknown
Apparent Right ascension
Unknown
Apparent Declination
Unknown
Sunlit
N/A
Visualization observer readout
Local Sidereal Time
03:45:00
Azimuth
Unknown
Elevation
Unknown
Doppler factor
Unknown
Orbital elements
Apogee altitude
1,068.292 km
Perigee altitude
978.298 km
Semi-major axis
7,401.432 km
Eccentricity
0.00608
Inclination
89.8795°
RAAN
290.1621°
Arg. of periapsis
162.9234°
True anomaly
318.8345°
Mean anomaly
319.2915°
Eccentric anomaly
319.06327°
Mean motion
3.40855 °/min
Orbital period
105.62 mins
BSTAR
0.00057651
Loading maneuver chart data...
Computing Atmospheric mass density...

Documentation

Showing up to 5 results
|